Terug naar catalogus

CZ-6A DEB

ActiefPO
NORAD 61309·DEBRIS·🇨🇳 China

Gelanceerd Aug 6, 2024 vanaf Taiyuan Satellite Launch Center

Loading…

Volgende Passages (komende 24 uur)

TLE

VersSource: Space-Track

Epoch: Sep 14, 2026, 23:07 UTC

1 61309U 24140TW  26257.96330230  .00002042  00000-0  77549-3 0  9991
2 61309  88.9721 261.1497 0021613 195.6937 164.3592 14.30597540106745

Volg CZ-6A DEB in realtime met AllMySat

Download on the App Store